Location: Trento
(46.0670°N, 11.1330°E)
Time: 08:53:46
(UTC+02:00)

Tiangong - Visible Passes

Search period start: 18 May 2024 00:00
Search period end: 28 May 2024 00:00
Orbit: 372 x 376 km, 41.5° (Epoch: 17 May)

Date Brightness Start Highest point End Pass type
(mag) Time Alt. Az. Time Alt. Az. Time Alt. Az.
24 May 0.0 03:59:47 13° SSE 04:00:18 14° SSE 04:01:57 10° ESE visible
25 May -0.8 04:30:53 14° SW 04:32:53 24° SSE 04:35:28 10° ESE visible
26 May -0.2 03:29:55 17° SE 03:29:55 17° SE 03:31:34 10° ESE visible
27 May -1.1 04:00:48 23° SSW 04:01:47 29° S 04:04:31 10° ESE visible
